Date,TemperatureHighF,TemperatureAvgF,TemperatureLowF,DewpointHighF,DewpointAvgF,DewpointLowF,HumidityHigh,HumidityAvg,HumidityLow,PressureMaxIn,PressureMinIn,WindSpeedMaxMPH,WindSpeedAvgMPH,GustSpeedMaxMPH,PrecipitationSumIn
2013-1-1,80,73,66,65,63,60,91,71,59,30.21,30.07,12,1,12,0.00
2013-1-2,82,72,63,69,66,61,97,82,57,30.12,30.01,9,1,9,0.00
2013-1-3,84,74,67,70,67,64,96,81,54,30.15,30.04,10,0,10,0.00
2013-1-4,82,73,66,72,69,65,98,88,66,30.24,30.12,6,0,6,0.00
2013-1-5,82,72,68,72,69,66,97,89,71,30.26,30.16,10,1,10,0.00
2013-1-6,83,74,67,74,70,66,98,88,69,30.21,30.08,13,1,13,0.06
2013-1-7,80,74,68,71,69,67,98,85,70,30.18,30.08,10,1,10,0.03
2013-1-8,82,75,68,74,71,67,99,88,73,30.21,30.08,15,1,15,0.02
2013-1-9,82,79,76,73,72,71,89,81,73,30.29,30.18,19,4,19,0.00
2013-1-10,81,77,74,69,68,65,82,74,62,30.31,30.19,17,3,17,0.00
2013-1-11,81,77,71,70,69,67,91,77,66,30.27,30.17,15,2,15,0.01
2013-1-12,83,75,68,71,68,65,97,81,63,30.20,30.10,14,1,14,0.00
2013-1-13,82,75,68,69,67,64,91,76,56,30.14,30.09,16,1,16,0.00
2013-1-16,70,70,70,69,68,68,94,94,93,30.06,30.06,0,0,0,0.00
2013-1-17,80,72,61,72,67,56,98,85,73,30.13,30.00,17,2,17,0.06
2013-1-18,70,62,55,62,55,48,86,76,64,30.27,30.13,10,1,10,0.00
2013-1-19,75,68,62,68,65,60,97,89,79,30.23,30.11,7,1,7,0.08
2013-1-20,84,71,65,70,66,64,98,86,54,30.17,30.03,8,0,8,0.01
2013-1-21,82,73,67,72,68,65,98,86,68,30.09,29.98,11,1,11,0.00
2013-1-22,78,70,62,65,60,56,95,72,57,30.23,30.04,11,1,11,0.00
2013-1-23,75,67,60,60,56,54,88,69,51,30.31,30.20,15,1,15,0.00
2013-1-24,77,66,56,59,56,53,93,72,50,30.31,30.21,10,0,10,0.00
2013-1-25,78,67,56,60,56,52,92,71,42,30.30,30.19,12,1,12,0.00
2013-1-26,80,68,58,64,60,55,97,79,51,30.27,30.17,11,1,11,0.00
2013-1-27,79,70,61,66,64,60,97,80,60,30.29,30.21,17,2,17,0.00
2013-1-28,80,75,70,67,66,64,81,72,59,30.33,30.24,16,3,16,0.00
2013-1-29,82,76,70,71,68,65,91,77,67,30.25,30.13,14,2,14,0.00
2013-1-30,80,74,70,69,67,65,93,77,64,30.14,29.99,16,2,16,0.00
2013-1-31,75,68,60,72,62,45,96,83,56,30.19,29.98,11,1,11,0.01
2013-2-1,75,63,52,57,50,41,80,63,49,30.29,30.18,14,2,14,0.00
2013-2-2,76,64,56,58,52,41,89,66,48,30.28,30.13,10,1,10,0.00
2013-2-3,75,64,55,58,52,42,95,67,34,30.19,30.08,8,0,8,0.00
2013-2-4,77,63,50,57,50,41,89,67,40,30.17,30.05,9,0,9,0.00
2013-2-5,79,67,55,65,60,54,96,79,56,30.11,30.02,10,0,10,0.00
2013-2-6,81,71,61,67,64,60,98,81,57,30.13,30.04,11,1,11,0.00
2013-2-7,83,73,63,68,65,62,96,76,55,30.10,29.97,14,1,14,0.00
2013-2-8,83,74,68,73,68,60,96,84,65,30.05,29.94,14,2,14,0.25
2013-2-9,80,71,63,69,64,59,98,79,64,30.19,30.04,14,2,14,0.00
2013-2-10,78,72,67,67,63,61,81,73,61,30.26,30.16,18,2,18,0.02
2013-2-11,80,73,67,68,65,62,89,77,64,30.24,30.13,12,1,12,0.00
2013-2-12,84,73,64,71,67,63,98,83,60,30.14,30.00,12,1,12,0.00
2013-2-13,84,76,68,74,71,67,98,85,70,30.04,29.93,14,2,14,0.00
2013-2-14,84,74,62,75,69,61,97,86,60,30.04,29.88,20,2,20,0.77
2013-2-15,73,67,63,70,66,62,98,96,86,30.04,29.96,7,0,7,1.07
2013-2-16,74,66,55,65,58,47,97,78,41,30.11,29.90,21,3,21,0.03
2013-2-17,60,52,46,47,33,24,76,49,28,30.33,30.11,18,2,18,0.00
2013-2-18,70,60,47,58,48,37,71,64,51,30.33,30.22,16,2,16,0.00
2013-2-19,78,70,58,68,62,54,95,78,65,30.22,30.10,11,1,11,0.00
2013-2-20,80,72,66,69,66,62,97,83,56,30.14,30.03,13,1,13,0.00
2013-2-21,81,74,65,69,67,64,97,80,61,30.11,30.01,11,1,11,0.00
2013-2-22,83,76,72,72,71,68,92,83,69,30.12,30.03,14,2,14,0.00
2013-2-23,84,77,72,74,72,69,95,83,68,30.07,29.94,13,2,13,0.00
2013-2-24,87,77,72,74,72,65,98,83,51,30.02,29.92,14,1,14,0.00
2013-2-25,86,77,70,74,71,68,97,82,61,29.94,29.83,14,1,14,0.00
2013-2-26,84,79,75,74,72,70,93,80,64,29.92,29.82,20,4,20,0.10
2013-2-27,77,71,66,74,68,65,96,90,71,29.99,29.88,7,0,7,0.21
2013-2-28,72,66,61,65,57,50,96,73,52,30.03,29.93,10,1,10,0.00
2013-3-1,66,63,59,57,54,48,84,72,64,30.02,29.92,9,1,9,0.00
2013-3-2,67,59,54,50,45,42,73,60,46,30.06,29.97,21,2,21,0.00
2013-3-3,63,56,51,48,45,43,84,68,51,30.17,29.98,20,3,20,0.00
2013-3-4,71,55,44,50,40,34,88,61,29,30.24,30.13,11,1,11,0.00
2013-3-5,76,64,50,59,54,45,95,71,50,30.20,30.10,13,1,13,0.00
2013-3-6,78,66,54,65,56,37,92,70,29,30.13,29.98,21,4,21,0.00
2013-3-7,72,59,47,54,44,38,87,61,37,30.20,30.10,10,1,10,0.00
2013-3-8,78,64,53,55,52,46,93,68,34,30.22,30.11,10,0,10,0.00
2013-3-9,76,66,55,61,55,51,91,70,54,30.21,30.12,14,1,14,0.00
2013-3-10,77,70,62,62,57,54,74,65,52,30.18,30.08,12,2,15,0.00
2013-3-11,77,72,68,64,62,59,83,71,60,30.12,29.98,16,2,16,0.00
2013-3-12,81,74,66,71,66,62,89,79,66,30.03,29.93,15,2,15,0.00
2013-3-13,78,71,60,67,56,46,89,61,33,30.15,30.00,11,1,11,0.00
2013-3-14,74,63,54,54,47,37,85,60,30,30.23,30.11,15,1,15,0.00
2013-3-15,74,63,52,54,50,44,88,66,37,30.27,30.17,13,1,13,0.00
2013-3-16,78,66,54,58,55,52,96,71,48,30.21,30.11,14,0,14,0.00
2013-3-17,79,68,56,63,59,55,96,75,52,30.17,30.05,12,1,12,0.00
2013-3-18,82,72,64,71,67,60,96,84,67,30.10,29.99,14,1,14,0.08
2013-3-19,82,73,68,71,68,65,98,85,63,30.04,29.87,12,1,12,0.08
2013-3-20,86,73,64,70,65,60,98,79,48,30.00,29.82,19,1,19,0.54
2013-3-21,78,69,62,62,57,48,93,68,40,29.97,29.86,13,1,13,0.00
2013-3-22,77,69,59,70,63,55,94,82,63,30.02,29.92,13,1,13,0.01
2013-3-23,88,82,72,75,72,69,96,75,56,29.99,29.84,13,2,13,0.00
2013-3-24,88,80,75,75,73,71,97,81,59,29.91,29.72,29,6,29,0.01
2013-3-25,81,75,65,74,63,38,93,69,37,30.02,29.77,13,2,13,0.00
2013-3-26,70,62,53,48,41,34,70,48,29,30.24,30.01,16,2,16,0.00
2013-3-27,70,58,46,48,42,36,80,57,39,30.28,30.18,12,1,12,0.00
2013-3-28,76,62,51,52,47,36,85,60,27,30.29,30.18,12,1,12,0.00
2013-3-29,76,66,56,56,51,43,73,60,44,30.30,30.22,14,1,14,0.00
2013-3-30,77,72,65,57,55,50,72,54,42,30.28,30.18,12,1,12,0.00
2013-3-31,82,72,60,67,62,56,93,73,57,30.22,30.07,16,1,16,0.00
2013-4-1,84,78,72,72,67,64,84,69,53,30.08,29.98,15,2,15,0.00
2013-4-2,86,74,66,69,66,62,97,76,48,30.11,30.01,10,0,10,0.00
2013-4-3,85,76,69,71,69,66,94,78,59,30.09,30.00,13,1,13,0.00
2013-4-4,86,76,68,75,71,66,96,84,66,30.07,29.94,13,2,13,0.38
2013-4-5,73,68,66,71,66,64,97,93,83,30.01,29.83,15,1,15,1.43
2013-4-6,81,69,60,67,62,58,96,78,55,30.11,29.95,13,2,13,0.00
2013-4-7,79,72,67,70,65,62,92,78,65,30.15,30.03,14,1,14,0.12
2013-4-8,82,77,71,65,62,60,75,61,50,30.15,30.07,10,2,10,0.00
2013-4-9,83,75,66,70,67,62,95,77,59,30.17,30.07,13,2,13,0.00
2013-4-10,85,79,71,73,72,67,88,79,65,30.12,30.01,15,3,15,0.00
2013-4-11,85,79,76,74,72,71,87,80,68,30.04,29.92,18,3,18,0.00
2013-4-12,89,81,76,78,75,73,93,82,66,29.98,29.89,14,2,14,0.05
2013-4-13,84,78,74,76,74,71,93,86,77,30.00,29.90,11,1,11,0.67
2013-4-14,88,80,74,76,74,72,96,82,61,29.99,29.91,15,1,15,0.00
2013-4-15,90,79,73,78,74,70,96,87,64,30.08,29.95,13,1,13,0.48
2013-4-16,88,79,72,77,73,69,97,83,63,30.14,30.04,13,1,13,0.02
2013-4-17,85,79,74,74,72,70,93,80,66,30.13,30.03,14,2,14,0.00
2013-4-18,88,80,74,74,72,70,89,76,59,30.08,29.99,14,2,14,0.00
2013-4-19,88,82,77,75,73,69,85,75,59,30.07,29.98,15,2,15,0.00
2013-4-20,91,79,71,78,74,69,97,84,51,30.10,29.94,24,1,24,2.38
2013-4-21,85,77,72,75,73,70,98,86,65,30.11,30.00,14,1,14,0.01
2013-4-22,83,75,70,74,71,68,96,88,70,30.07,29.94,9,1,9,0.29
2013-4-23,84,76,68,72,68,63,97,78,58,30.10,29.97,17,2,17,0.01
2013-4-24,84,77,69,69,66,62,81,69,58,30.15,30.05,13,1,13,0.00
2013-4-25,84,76,66,67,63,60,89,66,46,30.21,30.09,15,1,15,0.00
2013-4-26,83,75,65,68,65,61,92,71,55,30.24,30.13,16,2,16,0.00
2013-4-27,83,77,70,69,65,62,80,69,56,30.22,30.09,14,2,14,0.00
2013-4-28,83,78,73,69,66,63,81,68,56,30.13,30.01,16,2,16,0.00
2013-4-29,84,77,73,73,70,65,93,79,66,30.05,29.95,16,1,16,0.08
2013-4-30,84,75,72,75,71,67,95,87,70,30.03,29.94,18,0,18,1.34
2013-5-1,86,76,70,75,72,69,98,88,66,30.02,29.93,13,1,13,0.29
2013-5-2,81,73,68,74,71,67,98,92,71,29.99,29.80,17,1,17,2.36
2013-5-3,86,75,68,72,69,66,98,83,55,29.83,29.70,16,2,16,0.06
2013-5-4,86,77,70,71,69,66,95,77,53,29.84,29.71,17,3,17,0.01
2013-5-5,84,75,68,68,65,58,93,72,48,29.96,29.79,12,2,12,0.00
2013-5-6,84,74,60,68,61,56,90,66,43,30.04,29.94,13,2,13,0.00
2013-5-7,84,74,65,67,62,58,88,68,42,30.09,29.99,16,2,16,0.00
2013-5-8,87,75,65,68,62,58,90,66,43,30.16,30.07,12,1,12,0.00
2013-5-9,88,77,67,77,69,62,95,77,56,30.16,30.07,18,1,18,0.47
2013-5-10,90,80,71,75,73,68,96,79,58,30.15,30.04,12,1,12,0.00
2013-5-11,89,80,74,77,74,70,97,83,60,30.10,30.00,17,1,17,0.32
2013-5-12,90,79,72,75,73,71,96,82,60,30.08,29.97,13,1,13,0.00
2013-5-13,90,80,73,75,72,68,95,77,50,30.10,30.02,12,1,12,0.01
2013-5-14,83,77,72,70,64,57,85,65,49,30.19,30.07,17,2,17,0.00
2013-5-15,82,75,66,66,63,59,88,66,52,30.20,30.11,13,2,13,0.00
2013-5-16,84,77,66,67,64,59,86,65,52,30.13,30.05,13,1,13,0.00
2013-5-17,90,79,70,74,70,65,89,74,48,30.10,30.03,11,1,12,0.00
2013-5-18,87,80,74,77,73,70,94,79,65,30.12,30.05,12,1,12,0.07
2013-5-19,88,80,72,73,71,67,94,75,52,30.12,30.01,14,1,14,0.00
2013-5-20,83,77,70,76,73,68,96,87,74,30.09,29.98,14,1,14,0.87
2013-5-21,86,76,71,76,72,69,97,87,68,30.06,29.94,12,1,12,0.25
2013-5-22,88,78,72,78,73,69,97,85,61,29.98,29.90,9,0,9,0.41
2013-5-23,93,82,74,77,73,67,95,77,46,30.03,29.93,13,1,13,0.00
2013-5-24,93,82,75,77,74,61,93,76,48,30.08,29.97,14,1,14,0.00
2013-5-25,87,81,75,76,70,66,93,72,54,30.17,30.05,18,2,18,0.00
2013-5-26,86,79,71,71,68,64,86,68,53,30.18,30.11,19,2,19,0.00
2013-5-27,86,80,76,74,72,68,84,76,67,30.17,30.07,19,3,19,0.00
2013-5-28,84,79,73,75,73,69,95,82,68,30.12,30.05,20,3,20,0.51
2013-5-29,81,76,72,75,72,70,96,88,77,30.11,30.03,20,3,20,1.31
2013-5-30,84,79,76,76,73,70,94,83,71,30.08,30.01,19,4,19,0.42
2013-5-31,86,80,76,76,74,73,94,83,69,30.07,30.00,13,2,13,0.07
2013-6-1,87,78,74,78,75,72,97,89,71,30.05,29.97,15,1,15,1.77
2013-6-2,89,79,74,78,75,72,98,89,63,30.02,29.94,15,0,15,0.40
2013-6-3,86,79,73,77,74,72,98,86,65,30.05,29.93,9,1,10,0.06
2013-6-4,85,79,74,79,75,72,96,88,74,30.06,29.98,8,0,8,0.06
2013-6-5,85,81,77,78,77,75,95,88,79,30.04,29.91,11,1,11,0.11
2013-6-6,88,81,75,80,77,72,96,87,69,29.94,29.81,24,3,24,0.78
2013-6-7,88,78,74,80,75,73,97,91,71,30.03,29.87,17,2,17,1.46
2013-6-8,91,82,75,79,76,74,97,84,61,30.12,29.98,12,1,12,0.00
2013-6-9,88,83,80,78,76,74,88,80,66,30.12,30.05,15,2,15,0.00
2013-6-10,89,84,80,78,77,75,89,80,68,30.11,30.02,12,2,12,0.00
2013-6-11,90,83,78,80,77,74,93,82,68,30.11,30.02,15,1,15,0.00
2013-6-12,88,79,74,79,76,71,96,89,71,30.11,30.03,10,0,10,0.32
2013-6-13,90,80,74,80,75,71,98,84,63,30.08,29.96,12,1,12,0.16
2013-6-14,91,82,75,76,74,71,93,79,54,30.00,29.89,15,2,15,0.00
2013-6-15,94,84,76,78,75,70,95,76,51,30.08,29.95,10,1,10,0.00
2013-6-16,92,84,76,79,76,74,95,78,59,30.11,30.02,11,1,11,0.00
2013-6-17,92,85,77,79,76,74,93,75,58,30.10,30.02,12,1,12,0.00
2013-6-18,93,85,78,78,77,75,94,77,60,30.09,30.00,11,1,11,0.00
2013-6-19,92,84,79,78,76,73,92,78,61,30.07,30.00,10,1,10,0.01
2013-6-20,93,83,75,78,75,70,88,76,58,30.11,30.04,12,1,12,0.00
2013-6-21,92,85,78,76,74,72,88,71,53,30.13,30.05,11,1,11,0.00
2013-6-22,92,84,76,77,75,72,92,75,57,30.12,30.05,12,1,12,0.00
2013-6-23,91,84,78,78,75,72,91,75,60,30.14,30.06,14,2,14,0.11
2013-6-24,90,83,76,78,75,72,94,77,62,30.18,30.09,15,2,15,0.03
2013-6-25,92,84,79,78,76,74,88,77,61,30.14,30.05,14,2,14,0.00
2013-6-26,92,84,78,78,75,70,92,75,53,30.10,30.02,13,1,13,0.03
2013-6-27,90,83,79,79,76,73,90,79,63,30.07,29.98,11,0,11,0.00
2013-6-28,92,83,76,78,75,72,95,79,61,30.02,29.89,15,1,15,0.00
2013-6-29,92,82,77,78,75,72,93,81,59,29.95,29.87,16,1,16,0.45
2013-6-30,90,82,77,78,76,72,92,80,59,29.98,29.88,25,2,25,0.11
2013-7-1,90,82,77,79,76,72,90,82,64,30.06,29.93,15,1,15,0.09
2013-7-2,89,81,77,80,76,72,95,86,71,30.13,29.99,12,1,12,0.15
2013-7-3,90,82,76,78,76,73,96,83,64,30.14,30.06,18,2,18,0.13
2013-7-4,90,82,75,79,76,71,96,81,62,30.17,30.08,18,2,18,0.41
2013-7-5,88,82,75,78,76,72,95,82,70,30.16,30.06,18,2,18,0.06
2013-7-6,90,84,80,77,76,74,86,76,62,30.14,30.03,15,2,15,0.00
2013-7-7,89,84,80,77,75,74,85,76,65,30.11,30.03,19,2,19,0.01
2013-7-8,90,84,78,75,74,72,85,73,58,30.16,30.09,13,1,13,0.00
2013-7-9,87,79,74,77,73,72,95,83,64,30.18,30.07,10,0,10,0.72
2013-7-10,87,79,75,78,74,71,95,86,70,30.10,30.02,11,0,11,0.30
2013-7-11,93,83,76,78,75,73,94,79,58,30.06,29.98,10,0,10,0.00
2013-7-12,92,80,75,78,74,71,93,85,55,30.00,29.93,16,0,16,0.04
2013-7-13,88,77,72,78,74,71,97,91,67,30.05,29.94,17,1,17,2.35
2013-7-14,88,78,72,77,74,70,98,87,64,30.11,30.01,13,1,13,0.39
2013-7-15,90,80,73,78,74,71,96,83,60,30.11,30.02,12,1,12,0.13
2013-7-16,85,79,74,75,73,69,94,82,64,30.15,30.05,17,2,17,0.03
2013-7-17,80,75,72,76,73,71,97,94,83,30.16,30.06,16,0,16,2.98
2013-7-18,86,76,72,78,73,70,98,93,71,30.15,30.06,22,1,22,1.30
2013-7-19,90,81,73,80,76,73,99,87,67,30.15,30.06,13,1,13,0.00
2013-7-20,88,82,79,80,77,71,95,84,66,30.13,30.05,13,1,13,0.20
2013-7-21,92,83,78,80,78,76,96,84,64,30.17,30.07,11,0,11,0.00
2013-7-22,93,84,78,78,76,74,95,78,59,30.17,30.09,8,0,8,0.00
2013-7-23,92,84,77,80,77,73,95,80,62,30.14,30.00,8,0,8,0.00
2013-7-24,92,85,79,78,76,70,93,75,50,30.06,29.93,16,2,16,0.00
2013-7-25,92,84,75,79,76,72,95,77,58,30.05,29.94,14,3,14,0.00
2013-7-26,92,84,77,78,77,73,93,81,62,30.06,29.95,17,3,17,0.02
2013-7-27,85,80,74,79,76,72,96,89,80,30.05,29.96,11,0,12,2.21
2013-7-28,90,80,74,80,76,68,97,88,62,30.10,29.98,15,0,15,1.86
2013-7-29,92,84,76,80,77,74,97,81,61,30.15,30.04,12,1,12,0.00
2013-7-30,90,84,78,81,78,75,94,81,65,30.19,30.09,14,1,14,0.68
2013-7-31,91,85,78,79,77,74,95,78,64,30.13,30.01,15,2,15,0.01
2013-8-1,90,84,78,77,75,74,88,76,62,30.07,29.96,14,2,14,0.00
2013-8-2,92,83,77,77,75,72,93,78,56,30.08,29.94,11,1,11,0.03
2013-8-3,90,80,75,80,76,71,96,89,69,30.15,30.04,12,0,12,0.21
2013-8-4,93,83,77,78,75,71,96,78,51,30.14,30.00,15,1,15,0.00
2013-8-5,90,83,79,80,76,73,92,81,64,30.07,29.97,9,1,11,0.00
2013-8-6,92,83,76,80,76,74,94,82,63,30.02,29.91,11,1,11,0.01
2013-8-7,92,84,77,81,77,75,95,80,61,30.00,29.92,12,1,12,0.12
2013-8-8,92,85,80,79,76,72,85,75,56,30.04,29.93,16,2,16,0.02
2013-8-9,88,82,76,79,75,71,95,80,60,30.08,29.97,14,1,14,0.51
2013-8-10,81,80,78,76,75,73,86,85,84,30.08,30.05,6,0,6,0.00
2013-8-11,90,85,82,78,76,75,81,75,65,30.13,30.08,12,2,13,0.00
2013-8-12,92,84,76,78,76,72,93,75,54,30.13,30.03,13,1,13,0.00
2013-8-13,92,85,79,80,76,74,95,76,55,30.07,29.98,12,1,12,0.00
2013-8-14,91,82,79,76,76,74,89,80,61,30.05,29.95,13,0,13,0.00
2013-8-15,90,81,76,80,77,74,96,88,69,30.08,29.98,8,0,8,1.75
2013-8-16,94,85,78,80,78,76,97,81,61,30.07,30.00,11,1,11,0.01
2013-8-17,92,86,81,81,78,73,91,78,57,30.10,30.01,13,1,13,0.01
2013-8-18,92,85,79,80,78,76,91,79,66,30.10,30.00,17,2,17,0.06
2013-8-19,92,85,78,80,77,75,95,79,62,30.10,29.98,14,1,14,0.02
2013-8-20,91,85,81,78,76,74,85,76,63,30.07,30.00,15,2,15,0.00
2013-8-21,91,83,77,81,78,74,96,85,67,30.09,30.01,18,2,18,0.90
2013-8-22,91,84,77,80,78,75,96,81,67,30.09,29.97,13,2,13,0.20
2013-8-23,92,84,79,80,77,75,92,79,63,30.03,29.95,12,1,12,0.00
2013-8-24,93,84,78,80,77,73,95,79,62,30.13,29.99,12,1,12,0.00
2013-8-25,88,82,78,78,76,74,95,82,68,30.17,30.04,12,1,12,0.00
2013-8-26,91,80,77,78,75,72,91,84,66,30.14,30.03,10,0,10,0.27
2013-8-27,88,80,75,77,74,71,96,82,64,30.07,29.98,11,0,11,0.04
2013-8-28,90,80,72,78,74,69,95,84,63,30.07,29.96,14,1,14,0.21
2013-8-29,92,83,75,78,76,72,97,80,58,30.04,29.95,10,0,10,0.01
2013-8-30,94,84,76,79,75,71,96,76,52,30.03,29.92,11,0,11,0.00
2013-8-31,94,80,72,78,74,70,96,84,54,30.01,29.94,14,1,14,0.54
2013-9-1,91,80,74,80,76,73,98,90,70,30.02,29.95,9,0,9,0.09
2013-9-2,93,79,75,80,76,73,98,90,58,30.05,29.96,13,0,23,0.84
2013-9-3,93,81,74,80,76,73,98,87,63,30.04,29.95,11,0,11,0.29
2013-9-4,90,83,78,82,78,75,96,86,71,30.09,29.96,13,0,13,0.26
2013-9-5,92,83,78,81,78,76,98,84,66,30.09,30.01,12,1,12,0.27
2013-9-6,93,85,78,80,77,74,95,78,57,30.05,29.93,12,1,12,0.04
2013-9-7,90,82,75,78,76,72,95,83,65,30.01,29.91,11,0,11,0.13
2013-9-8,90,80,74,79,75,71,96,86,66,29.97,29.87,14,0,14,0.38
2013-9-9,91,83,75,78,76,74,97,82,61,30.01,29.91,12,1,12,0.00
2013-9-10,89,81,76,80,76,72,94,84,67,30.05,29.96,20,1,20,0.37
2013-9-11,79,78,77,76,75,74,93,91,86,30.04,29.98,4,0,4,0.00
2013-9-12,82,81,80,78,77,77,91,88,85,29.95,29.92,2,0,2,0.01
2013-9-13,93,83,75,80,76,70,98,79,48,29.92,29.82,8,0,8,0.00
2013-9-14,94,83,77,81,76,73,97,81,52,29.95,29.85,9,0,9,0.00
2013-9-15,80,80,78,77,76,76,92,90,88,29.99,29.98,2,1,4,1.14
2013-9-17,78,78,78,76,76,76,94,94,94,29.94,29.94,1,1,1,0.00
2013-9-19,76,76,76,75,75,75,96,96,96,30.00,30.00,0,0,0,0.00
2013-9-21,90,81,74,78,75,72,97,82,64,29.92,29.79,11,1,11,0.01
2013-9-22,91,84,77,79,76,74,94,80,60,29.90,29.78,11,1,11,0.01
2013-9-23,88,81,78,79,77,75,95,89,70,29.99,29.88,19,0,19,0.32
2013-9-24,92,83,77,81,77,73,96,84,60,29.99,29.91,15,2,15,0.00
2013-9-25,89,80,76,80,76,72,96,89,71,29.94,29.84,27,1,27,0.35
2013-9-26,89,81,78,80,78,76,96,91,71,29.90,29.84,15,2,15,0.00
2013-9-27,92,83,76,77,74,68,97,77,47,29.94,29.84,10,0,10,0.00
2013-9-28,89,80,73,77,74,71,96,81,62,29.99,29.89,12,1,12,0.62
2013-9-29,89,80,73,77,73,69,98,81,55,29.99,29.89,12,1,12,0.19
2013-9-30,90,81,73,77,73,70,96,77,59,30.02,29.92,14,1,14,0.00
2013-10-1,89,82,75,77,74,72,93,77,63,30.04,29.97,14,2,14,0.00
2013-10-2,83,78,74,79,76,73,97,92,82,30.08,29.97,12,1,12,3.94
2013-10-3,85,79,74,79,75,72,98,88,73,30.07,29.96,11,1,11,0.03
2013-10-4,89,80,73,78,73,70,97,80,61,30.07,30.00,11,1,11,0.00
2013-10-5,90,81,72,76,72,65,94,76,45,30.05,29.95,14,1,14,0.00
2013-10-6,93,82,74,78,73,70,97,77,51,29.99,29.88,8,0,8,0.01
2013-10-7,90,80,73,77,74,71,95,81,59,29.93,29.84,20,2,20,0.04
2013-10-8,89,82,76,80,76,73,95,84,65,29.96,29.87,14,2,14,0.10
2013-10-9,87,79,72,78,74,70,95,86,72,30.01,29.93,9,0,9,0.10
2013-10-10,90,81,73,75,73,70,96,77,57,30.03,29.95,13,1,13,0.00
2013-10-11,88,78,69,73,70,68,97,77,55,30.03,29.95,9,1,12,0.00
2013-10-12,88,78,69,74,69,67,97,76,53,30.05,29.97,10,0,10,0.00
2013-10-13,87,78,71,74,69,66,96,76,53,30.07,29.98,12,1,12,0.00
2013-10-14,87,78,70,73,69,66,95,75,53,30.04,29.92,13,1,13,0.00
2013-10-15,88,78,71,74,70,68,97,79,55,29.97,29.88,11,0,11,0.00
2013-10-16,87,78,71,74,71,69,96,80,63,29.97,29.90,11,1,11,0.00
2013-10-17,90,80,71,76,72,70,97,79,57,29.99,29.91,9,1,9,0.00
2013-10-18,89,80,72,76,73,70,97,79,59,30.01,29.92,10,1,10,0.00
2013-10-19,91,82,73,77,75,72,96,79,62,29.98,29.89,9,1,9,0.00
2013-10-20,92,81,76,79,76,72,97,85,57,29.99,29.89,10,1,10,0.99
2013-10-21,90,83,77,80,76,74,96,82,63,30.03,29.92,10,1,10,0.00
2013-10-22,91,82,75,80,76,74,98,83,66,29.99,29.86,12,1,12,0.00
2013-10-23,88,80,76,78,76,71,96,87,68,29.98,29.84,8,1,12,0.56
2013-10-24,83,77,72,71,68,65,85,75,66,30.11,29.95,12,1,12,0.01
2013-10-25,83,76,70,70,66,64,85,72,55,30.17,30.08,17,2,17,0.00
2013-10-26,84,75,67,69,66,64,92,74,53,30.17,30.07,9,1,13,0.00
2013-10-27,84,74,66,68,65,61,88,73,52,30.11,30.04,15,1,15,0.00
2013-10-28,86,76,66,70,66,62,96,73,48,30.16,30.06,13,1,13,0.00
2013-10-29,85,76,67,72,68,65,95,77,60,30.19,30.10,17,2,17,0.00
2013-10-30,84,79,72,71,68,65,85,71,55,30.20,30.10,17,2,17,0.00
2013-10-31,87,79,70,74,71,66,91,76,58,30.13,30.01,13,1,13,0.00
2013-11-1,89,81,73,76,74,70,93,79,65,30.03,29.91,10,1,10,0.00
2013-11-2,88,79,71,75,71,66,98,80,54,29.96,29.83,11,2,12,0.00
2013-11-3,83,76,69,68,65,61,86,68,57,30.04,29.91,19,2,19,0.00
2013-11-4,83,77,74,70,66,57,87,68,45,30.08,30.01,21,4,21,0.02
2013-11-5,83,79,74,73,70,66,93,75,65,30.10,30.01,22,4,22,0.15
2013-11-6,85,78,72,74,72,69,93,80,67,30.07,30.00,17,2,17,0.12
2013-11-7,89,78,69,74,70,67,96,81,53,30.04,29.93,8,0,8,0.00
2013-11-8,85,76,70,75,72,68,97,87,62,30.06,29.96,18,1,22,0.77
2013-11-9,82,77,74,75,73,72,96,90,78,30.12,30.02,15,3,18,0.82
2013-11-10,86,78,74,74,72,69,96,81,61,30.13,30.05,14,2,14,0.93
2013-11-11,85,77,70,74,70,68,94,80,67,30.13,30.06,14,1,14,0.00
2013-11-12,86,77,69,73,70,67,95,79,64,30.09,29.98,11,1,11,0.00
2013-11-13,78,72,69,70,66,63,89,82,64,30.21,30.01,18,3,18,0.03
2013-11-14,78,75,73,66,62,61,75,65,61,30.24,30.14,16,4,16,0.00
2013-11-15,82,76,73,72,68,63,94,76,63,30.16,30.04,15,2,15,0.30
2013-11-16,81,78,76,73,70,68,91,78,71,30.11,30.02,14,2,14,0.03
2013-11-17,85,79,75,74,71,69,85,77,67,30.10,30.02,12,1,12,0.00
2013-11-19,87,78,73,75,73,71,93,84,64,29.97,29.87,9,1,9,0.00
2013-11-20,83,76,70,76,73,69,98,91,74,30.08,29.94,7,0,11,0.24
2013-11-21,86,76,71,76,73,70,98,89,63,30.15,30.06,14,1,14,1.37
2013-11-22,82,77,73,74,72,71,97,86,75,30.16,30.07,18,2,18,0.56
2013-11-23,81,76,70,74,72,66,95,87,77,30.09,29.99,11,1,11,0.57
2013-11-24,84,74,68,72,68,66,97,84,61,30.15,30.00,16,1,16,0.06
2013-11-25,76,73,72,70,65,63,86,75,72,30.20,30.07,20,4,20,0.07
2013-11-26,78,78,78,76,76,76,91,91,91,29.86,29.86,1,1,1,0.10
2013-11-27,79,72,59,76,62,53,97,73,55,30.14,29.86,14,4,17,1.18
2013-11-28,74,62,50,62,54,46,90,77,60,30.26,30.13,13,1,13,0.00
2013-11-29,78,69,59,65,61,58,94,77,59,30.28,30.19,17,2,17,0.00
2013-11-30,81,70,61,71,64,59,96,85,70,30.22,30.12,16,1,16,0.46
2013-12-1,78,67,61,71,64,60,97,90,73,30.12,30.01,9,0,9,0.03
2013-12-2,78,69,62,66,61,60,94,78,59,29.95,29.84,7,0,7,0.00
2013-12-3,82,71,60,67,64,59,97,81,56,30.03,29.92,7,0,7,0.00
2013-12-4,85,73,65,71,67,64,97,82,57,30.11,30.01,9,0,9,0.00
2013-12-5,83,74,66,73,69,64,98,87,69,30.18,30.09,14,1,14,0.00
2013-12-6,84,77,70,72,70,66,92,79,59,30.20,30.10,15,1,15,0.00
2013-12-7,84,74,66,74,69,65,98,84,64,30.23,30.15,3,1,9,0.00
2013-12-8,83,77,70,73,70,66,93,81,65,30.23,30.14,5,2,12,0.02
2013-12-9,85,78,73,72,70,66,87,76,58,30.22,30.13,4,1,10,0.00
2013-12-10,86,78,71,74,72,68,95,83,65,30.18,30.10,2,0,9,0.00
2013-12-11,72,72,72,70,70,70,95,95,93,30.18,30.16,0,0,0,0.00
2013-12-12,81,75,65,71,67,60,84,77,71,30.20,30.17,1,1,1,0.00
2013-12-13,78,74,70,71,69,68,97,85,71,30.19,30.10,13,2,13,1.55
2013-12-14,83,78,74,73,72,69,91,82,70,30.12,30.01,15,2,15,0.01
2013-12-15,84,78,73,76,73,70,95,87,69,30.08,29.95,17,2,17,0.00
2013-12-16,75,69,62,71,63,59,93,82,68,30.18,30.06,8,0,8,0.00
2013-12-17,79,67,59,68,61,57,95,82,62,30.20,30.11,13,1,13,0.00
2013-12-18,79,67,59,62,59,57,96,78,55,30.25,30.16,8,1,11,0.00
2013-12-19,79,68,57,65,61,56,97,79,58,30.25,30.16,13,1,13,0.00
2013-12-20,82,76,68,71,69,63,89,79,65,30.20,30.12,15,2,15,0.00
2013-12-21,84,78,75,74,72,71,89,83,72,30.17,30.08,16,2,16,0.00
2013-12-22,84,79,76,74,73,71,91,81,68,30.18,30.10,14,2,14,0.00
2013-12-23,85,78,70,75,72,69,95,83,68,30.20,30.14,7,1,11,0.00
2013-12-24,85,72,66,73,68,61,98,87,63,30.20,30.09,10,1,10,0.00
2013-12-25,78,74,67,69,67,63,90,80,72,30.19,30.10,17,3,17,0.04
2013-12-26,75,72,70,73,70,68,98,95,90,30.18,30.08,9,0,9,0.94
2013-12-27,82,74,68,73,71,67,99,89,73,30.21,30.10,15,2,15,0.03
2013-12-28,80,76,72,74,72,70,96,87,80,30.19,30.04,13,2,13,1.09
2013-12-29,81,77,74,75,74,72,97,89,82,30.07,29.95,9,2,13,0.00
2013-12-30,82,74,70,74,71,67,98,90,74,30.15,30.00,6,0,6,0.00
2013-12-31,79,73,66,70,66,63,94,81,69,30.24,30.12,17,2,17,0.00
2014-1-1,82,76,73,75,72,66,95,85,70,30.20,30.07,12,1,12,0.02
2014-1-2,85,75,67,73,70,66,98,85,62,30.07,29.90,16,2,16,0.00